Find CAMEO

NORAD ID: 11081 Int'l Des: 1978-098 Owner: GSFC Country: US operational
LEOCIRCULARRETROGRADESSO

Live Position

Loading 3D Globe...

About CAMEO

Description loading...

Upcoming Passes

Passes for default location (London). Set your location on the main map for personalized predictions.

Altitude History

Loading altitude history...

Two-Line Element Set

1 11081U 78098B 26109.53668819 .00000013 00000-0 51242-4 0 9999
2 11081 99.4153 44.3592 0028303 315.7561 44.1332 13.86104895239685
Epoch: Apr 19, 2026 • Age: 8 hours

Current Status

Altitude 953.8 km
Velocity 7.38 km/s
Sub-Earth Point -78.45°S, 66.6°W
Launch Date Oct 24, 1978
Age 47.4 years
Type other

Technical Details

Classification Payload
Mass 89.00 kg
Dry Mass 56.00 kg
Total Mass 934.00 kg
Length 0.10 m
Diameter 2.40 m
Span 2.40 m
Shape 5 Cyl + 2 Box
Manufacturer GSFC
Bus Type Delta Attached
Phase Status Attached in Orbit
Owner/State GSFC/US

Most Searched